| time (UTC) | temp F | wind direction | speed MPH | gust MPH | rain 1hr in | rain 24hr in | rain mn in | humidity % | barometer mb |
| 20260508130526 | 55 | 145 | 2.0 | 6.0 | 0.00 | 0.00 | 0.00 | 41 | 1009.6 |
| 20260508130056 | 55 | 32 | 3.0 | 6.0 | 0.00 | 0.00 | 0.00 | 45 | 1009.7 |
| 20260508125526 | 55 | 49 | 2.0 | 6.0 | 0.00 | 0.00 | 0.00 | 45 | 1009.7 |
| 20260508125027 | 55 | 349 | 1.0 | 6.0 | 0.00 | 0.00 | 0.00 | 45 | 1009.6 |
| 20260508124535 | 55 | 207 | 2.0 | 6.0 | 0.00 | 0.00 | 0.00 | 42 | 1009.5 |
| 20260508124026 | 55 | 224 | 1.0 | 6.0 | 0.00 | 0.00 | 0.00 | 42 | 1009.5 |
| 20260508123524 | 55 | 87 | 1.0 | 4.0 | 0.00 | 0.00 | 0.00 | 47 | 1009.6 |
| 20260508123043 | 54 | 43 | 1.0 | 4.0 | 0.00 | 0.00 | 0.00 | 47 | 1009.5 |
| 20260508122527 | 54 | 165 | 1.0 | 3.0 | 0.00 | 0.00 | 0.00 | 45 | 1009.6 |
| 20260508122025 | 54 | 30 | 0.0 | 6.0 | 0.00 | 0.00 | 0.00 | 48 | 1009.6 |
| 20260508121554 | 53 | 333 | 0.0 | 6.0 | 0.00 | 0.00 | 0.00 | 47 | 1009.6 |
| 20260508121027 | 53 | 135 | 1.0 | 5.0 | 0.00 | 0.00 | 0.00 | 48 | 1009.7 |
| 20260508120526 | 53 | 62 | 2.0 | 5.0 | 0.00 | 0.00 | 0.00 | 46 | 1009.7 |
| 20260508120038 | 53 | 23 | 0.0 | 3.0 | 0.00 | 0.00 | 0.00 | 46 | 1009.7 |
| 20260508115524 | 53 | 94 | 0.0 | 3.0 | 0.00 | 0.00 | 0.00 | 48 | 1009.7 |
| 20260508115026 | 52 | 342 | 0.0 | 3.0 | 0.00 | 0.00 | 0.00 | 50 | 1009.7 |
| 20260508114538 | 51 | 255 | 1.0 | 3.0 | 0.00 | 0.00 | 0.00 | 52 | 1009.7 |
| 20260508114027 | 51 | 207 | 0.0 | 3.0 | 0.00 | 0.00 | 0.00 | 51 | 1009.6 |
| 20260508113526 | 51 | 114 | 0.0 | 3.0 | 0.00 | 0.00 | 0.00 | 55 | 1009.6 |
| 20260508113041 | 50 | 0 | 1.0 | 3.0 | 0.00 | 0.00 | 0.00 | 55 | 1009.5 |
| 20260508112527 | 49 | 239 | 1.0 | 3.0 | 0.00 | 0.00 | 0.00 | 53 | 1009.5 |
| 20260508112027 | 49 | 29 | 1.0 | 4.0 | 0.00 | 0.00 | 0.00 | 55 | 1009.5 |
| 20260508111534 | 48 | 150 | 1.0 | 4.0 | 0.00 | 0.00 | 0.00 | 56 | 1009.4 |
| 20260508111026 | 47 | 0 | 1.0 | 5.0 | 0.00 | 0.00 | 0.00 | 59 | 1009.5 |
| 20260508110526 | 46 | 263 | 0.0 | 5.0 | 0.00 | 0.00 | 0.00 | 60 | 1009.4 |
| 20260508110037 | 45 | 118 | 1.0 | 5.0 | 0.00 | 0.00 | 0.00 | 63 | 1009.4 |
| 20260508105530 | 44 | 0 | 0.0 | 1.0 | 0.00 | 0.00 | 0.00 | 66 | 1009.5 |
| 20260508105026 | 42 | 127 | 0.0 | 1.0 | 0.00 | 0.00 | 0.00 | 71 | 1009.3 |
| 20260508104603 | 40 | 0 | 0.0 | 0.0 | 0.00 | 0.00 | 0.00 | 74 | 1009.3 |
| 20260508104025 | 39 | 0 | 0.0 | 0.0 | 0.00 | 0.00 | 0.00 | 76 | 1009.2 |
| 20260508103525 | 39 | 0 | 0.0 | 0.0 | 0.00 | 0.00 | 0.00 | 77 | 1009.1 |
| 20260508103115 | 38 | 0 | 0.0 | 0.0 | 0.00 | 0.00 | 0.00 | 77 | 1009.2 |
| 20260508102525 | 38 | 0 | 0.0 | 0.0 | 0.00 | 0.00 | 0.00 | 78 | 1009.1 |
| 20260508102027 | 38 | 0 | 0.0 | 0.0 | 0.00 | 0.00 | 0.00 | 78 | 1009.0 |
| 20260508101535 | 38 | 0 | 0.0 | 0.0 | 0.00 | 0.00 | 0.00 | 78 | 1008.9 |
| 20260508101025 | 38 | 0 | 0.0 | 0.0 | 0.00 | 0.00 | 0.00 | 78 | 1008.9 |
| 20260508100527 | 38 | 0 | 0.0 | 0.0 | 0.00 | 0.00 | 0.00 | 79 | 1008.8 |
| 20260508100034 | 38 | 0 | 0.0 | 0.0 | 0.00 | 0.00 | 0.00 | 79 | 1008.7 |
| 20260508095527 | 37 | 0 | 0.0 | 0.0 | 0.00 | 0.00 | 0.00 | 80 | 1008.8 |
| 20260508095027 | 37 | 0 | 0.0 | 0.0 | 0.00 | 0.00 | 0.00 | 82 | 1008.7 |
| 20260508094544 | 36 | 0 | 0.0 | 0.0 | 0.00 | 0.00 | 0.00 | 83 | 1008.8 |
| 20260508094025 | 36 | 0 | 0.0 | 0.0 | 0.00 | 0.00 | 0.00 | 83 | 1008.7 |
| 20260508093525 | 36 | 0 | 0.0 | 0.0 | 0.00 | 0.00 | 0.00 | 84 | 1008.7 |
| 20260508093038 | 36 | 0 | 0.0 | 0.0 | 0.00 | 0.00 | 0.00 | 84 | 1008.7 |
| 20260508092525 | 36 | 0 | 0.0 | 0.0 | 0.00 | 0.00 | 0.00 | 84 | 1008.7 |
| 20260508092024 | 36 | 0 | 0.0 | 0.0 | 0.00 | 0.00 | 0.00 | 84 | 1008.6 |
| 20260508091539 | 36 | 0 | 0.0 | 0.0 | 0.00 | 0.00 | 0.00 | 84 | 1008.5 |
| 20260508091027 | 36 | 0 | 0.0 | 0.0 | 0.00 | 0.00 | 0.00 | 83 | 1008.5 |
| 20260508090525 | 36 | 0 | 0.0 | 0.0 | 0.00 | 0.00 | 0.00 | 83 | 1008.5 |
| 20260508090047 | 36 | 0 | 0.0 | 0.0 | 0.00 | 0.00 | 0.00 | 83 | 1008.4 |
| 20260508085525 | 36 | 0 | 0.0 | 0.0 | 0.00 | 0.00 | 0.00 | 83 | 1008.5 |
| 20260508085025 | 36 | 0 | 0.0 | 0.0 | 0.00 | 0.00 | 0.00 | 82 | 1008.3 |
| 20260508084535 | 36 | 0 | 0.0 | 0.0 | 0.00 | 0.00 | 0.00 | 81 | 1008.4 |
| 20260508084025 | 36 | 0 | 0.0 | 0.0 | 0.00 | 0.00 | 0.00 | 81 | 1008.5 |
| 20260508083528 | 36 | 0 | 0.0 | 0.0 | 0.00 | 0.00 | 0.00 | 81 | 1008.4 |
| 20260508083102 | 36 | 0 | 0.0 | 0.0 | 0.00 | 0.00 | 0.00 | 80 | 1008.4 |
| 20260508082524 | 36 | 0 | 0.0 | 0.0 | 0.00 | 0.00 | 0.00 | 80 | 1008.3 |
| 20260508082024 | 36 | 0 | 0.0 | 0.0 | 0.00 | 0.00 | 0.00 | 80 | 1008.2 |
| 20260508081554 | 36 | 0 | 0.0 | 0.0 | 0.00 | 0.00 | 0.00 | 80 | 1008.1 |
| 20260508081027 | 36 | 0 | 0.0 | 0.0 | 0.00 | 0.00 | 0.00 | 79 | 1008.1 |
| 20260508080526 | 37 | 0 | 0.0 | 0.0 | 0.00 | 0.00 | 0.00 | 80 | 1008.1 |
| 20260508080036 | 37 | 0 | 0.0 | 0.0 | 0.00 | 0.00 | 0.00 | 79 | 1008.0 |
| 20260508075528 | 37 | 0 | 0.0 | 0.0 | 0.00 | 0.02 | 0.00 | 78 | 1007.9 |
| 20260508075028 | 37 | 0 | 0.0 | 0.0 | 0.00 | 0.02 | 0.00 | 78 | 1007.7 |
| 20260508074536 | 37 | 0 | 0.0 | 0.0 | 0.00 | 0.02 | 0.00 | 77 | 1007.6 |
| 20260508074028 | 38 | 0 | 0.0 | 0.0 | 0.00 | 0.02 | 0.00 | 77 | 1007.6 |
| 20260508073525 | 38 | 0 | 0.0 | 0.0 | 0.00 | 0.02 | 0.00 | 76 | 1007.6 |
| 20260508073039 | 38 | 0 | 0.0 | 0.0 | 0.00 | 0.02 | 0.00 | 77 | 1007.4 |
| 20260508072527 | 38 | 0 | 0.0 | 0.0 | 0.00 | 0.02 | 0.00 | 76 | 1007.4 |
| 20260508072024 | 38 | 0 | 0.0 | 0.0 | 0.00 | 0.02 | 0.00 | 76 | 1007.3 |
| 20260508071541 | 39 | 0 | 0.0 | 0.0 | 0.00 | 0.02 | 0.00 | 76 | 1007.2 |
| 20260508071027 | 39 | 0 | 0.0 | 0.0 | 0.00 | 0.02 | 0.00 | 76 | 1007.2 |
| 20260508070532 | 39 | 0 | 0.0 | 0.0 | 0.00 | 0.02 | 0.00 | 76 | 1007.2 |
| 20260508070136 | 39 | 0 | 0.0 | 0.0 | 0.00 | 0.02 | 0.00 | 76 | 1007.2 |
| 20260508065527 | 39 | 0 | 0.0 | 0.0 | 0.00 | 0.02 | 0.00 | 76 | 1007.3 |
| 20260508065024 | 39 | 0 | 0.0 | 0.0 | 0.00 | 0.02 | 0.00 | 74 | 1007.3 |
| 20260508064543 | 39 | 0 | 0.0 | 0.0 | 0.00 | 0.02 | 0.00 | 73 | 1007.3 |
| 20260508064028 | 40 | 0 | 0.0 | 0.0 | 0.00 | 0.02 | 0.00 | 73 | 1007.4 |
| 20260508063528 | 40 | 0 | 0.0 | 1.0 | 0.00 | 0.02 | 0.00 | 74 | 1007.3 |
| 20260508063046 | 40 | 0 | 0.0 | 1.0 | 0.00 | 0.02 | 0.00 | 74 | 1007.4 |
| 20260508062528 | 40 | 0 | 0.0 | 0.0 | 0.00 | 0.02 | 0.00 | 74 | 1007.2 |
| 20260508062027 | 40 | 0 | 0.0 | 0.0 | 0.00 | 0.02 | 0.00 | 74 | 1007.3 |
| 20260508061548 | 40 | 0 | 0.0 | 0.0 | 0.00 | 0.02 | 0.00 | 74 | 1007.3 |
| 20260508061024 | 40 | 0 | 0.0 | 0.0 | 0.00 | 0.02 | 0.00 | 74 | 1007.3 |
| 20260508060529 | 40 | 0 | 0.0 | 0.0 | 0.00 | 0.02 | 0.00 | 74 | 1007.3 |
| 20260508060044 | 40 | 0 | 0.0 | 0.0 | 0.00 | 0.02 | 0.00 | 73 | 1007.3 |
| 20260508055527 | 41 | 0 | 0.0 | 0.0 | 0.00 | 0.02 | 0.00 | 73 | 1007.4 |
| 20260508055028 | 41 | 0 | 0.0 | 0.0 | 0.00 | 0.02 | 0.00 | 72 | 1007.5 |
| 20260508054543 | 41 | 0 | 0.0 | 0.0 | 0.00 | 0.02 | 0.00 | 72 | 1007.6 |
| 20260508054029 | 41 | 0 | 0.0 | 0.0 | 0.00 | 0.02 | 0.00 | 72 | 1007.5 |
| 20260508053524 | 41 | 0 | 0.0 | 0.0 | 0.00 | 0.02 | 0.00 | 72 | 1007.6 |
| 20260508053038 | 41 | 0 | 0.0 | 0.0 | 0.00 | 0.02 | 0.00 | 72 | 1007.6 |
| 20260508052528 | 42 | 0 | 0.0 | 1.0 | 0.00 | 0.02 | 0.00 | 71 | 1007.7 |
| 20260508052029 | 42 | 0 | 0.0 | 1.0 | 0.00 | 0.02 | 0.00 | 72 | 1007.7 |
| 20260508051538 | 42 | 0 | 0.0 | 0.0 | 0.00 | 0.02 | 0.00 | 71 | 1007.7 |
| 20260508051028 | 42 | 0 | 0.0 | 1.0 | 0.00 | 0.02 | 0.00 | 71 | 1007.9 |
| 20260508050529 | 42 | 0 | 0.0 | 1.0 | 0.00 | 0.02 | 0.00 | 70 | 1007.9 |
| 20260508050039 | 42 | 0 | 0.0 | 1.0 | 0.00 | 0.02 | 0.00 | 69 | 1008.0 |
| 20260508045529 | 42 | 0 | 0.0 | 1.0 | 0.00 | 0.03 | 0.00 | 68 | 1008.0 |
| 20260508045027 | 43 | 0 | 0.0 | 1.0 | 0.00 | 0.03 | 0.00 | 67 | 1008.0 |
| 20260508044535 | 43 | 0 | 0.0 | 1.0 | 0.00 | 0.03 | 0.00 | 66 | 1008.0 |
| 20260508044027 | 43 | 0 | 0.0 | 0.0 | 0.00 | 0.03 | 0.00 | 65 | 1008.1 |
| 20260508043526 | 43 | 0 | 0.0 | 0.0 | 0.00 | 0.03 | 0.00 | 64 | 1008.0 |
| 20260508043056 | 44 | 0 | 0.0 | 0.0 | 0.00 | 0.03 | 0.00 | 63 | 1008.1 |
| 20260508042528 | 44 | 0 | 0.0 | 0.0 | 0.00 | 0.03 | 0.00 | 63 | 1008.2 |
| 20260508042026 | 44 | 0 | 0.0 | 0.0 | 0.00 | 0.03 | 0.00 | 63 | 1008.2 |
| 20260508041537 | 44 | 0 | 0.0 | 0.0 | 0.00 | 0.03 | 0.00 | 62 | 1008.2 |
| 20260508041028 | 45 | 0 | 0.0 | 1.0 | 0.00 | 0.03 | 0.00 | 60 | 1008.2 |
| 20260508040529 | 45 | 0 | 0.0 | 1.0 | 0.00 | 0.03 | 0.00 | 59 | 1008.2 |
| 20260508040043 | 45 | 0 | 0.0 | 1.0 | 0.00 | 0.03 | 0.00 | 59 | 1008.1 |
| 20260508035527 | 45 | 0 | 0.0 | 0.0 | 0.00 | 0.04 | 0.03 | 59 | 1008.1 |
| 20260508035029 | 45 | 0 | 0.0 | 0.0 | 0.00 | 0.04 | 0.03 | 58 | 1008.0 |
| 20260508034542 | 45 | 0 | 0.0 | 1.0 | 0.00 | 0.04 | 0.03 | 57 | 1007.9 |
| 20260508034029 | 46 | 0 | 0.0 | 1.0 | 0.00 | 0.04 | 0.03 | 57 | 1008.0 |
| 20260508033529 | 46 | 0 | 0.0 | 0.0 | 0.00 | 0.04 | 0.03 | 56 | 1008.1 |
| 20260508033038 | 46 | 0 | 0.0 | 1.0 | 0.00 | 0.04 | 0.03 | 55 | 1008.1 |
| 20260508032528 | 47 | 0 | 0.0 | 1.0 | 0.00 | 0.04 | 0.03 | 56 | 1008.1 |
| 20260508032026 | 47 | 0 | 0.0 | 1.0 | 0.00 | 0.04 | 0.03 | 55 | 1007.9 |
| 20260508031550 | 47 | 0 | 0.0 | 1.0 | 0.00 | 0.04 | 0.03 | 55 | 1007.9 |
| 20260508031028 | 47 | 0 | 0.0 | 1.0 | 0.00 | 0.04 | 0.03 | 55 | 1007.9 |
| 20260508030528 | 47 | 0 | 0.0 | 1.0 | 0.00 | 0.04 | 0.03 | 55 | 1007.8 |
| 20260508030049 | 47 | 0 | 0.0 | 2.0 | 0.00 | 0.04 | 0.03 | 55 | 1007.8 |
| 20260508025528 | 47 | 0 | 0.0 | 2.0 | 0.00 | 0.05 | 0.03 | 56 | 1008.0 |
| 20260508025027 | 47 | 0 | 0.0 | 1.0 | 0.00 | 0.05 | 0.03 | 55 | 1008.0 |
| 20260508024544 | 47 | 0 | 0.0 | 1.0 | 0.00 | 0.05 | 0.03 | 55 | 1008.0 |
| 20260508024029 | 47 | 0 | 0.0 | 1.0 | 0.00 | 0.05 | 0.03 | 54 | 1008.0 |
| 20260508023528 | 47 | 214 | 0.0 | 1.0 | 0.00 | 0.05 | 0.03 | 55 | 1007.9 |
| 20260508023046 | 47 | 203 | 0.0 | 0.0 | 0.00 | 0.05 | 0.03 | 55 | 1007.9 |
| 20260508022529 | 47 | 0 | 0.0 | 0.0 | 0.00 | 0.05 | 0.03 | 55 | 1007.9 |
| 20260508022024 | 47 | 204 | 0.0 | 0.0 | 0.00 | 0.05 | 0.03 | 54 | 1007.8 |
| 20260508021544 | 47 | 0 | 0.0 | 0.0 | 0.00 | 0.05 | 0.03 | 55 | 1007.9 |
| 20260508021027 | 48 | 0 | 0.0 | 0.0 | 0.00 | 0.05 | 0.03 | 54 | 1008.0 |
| 20260508020527 | 48 | 0 | 0.0 | 0.0 | 0.00 | 0.05 | 0.03 | 54 | 1007.9 |
| 20260508020040 | 48 | 0 | 0.0 | 0.0 | 0.00 | 0.05 | 0.03 | 53 | 1007.9 |
| 20260508015527 | 48 | 0 | 0.0 | 0.0 | 0.00 | 0.05 | 0.03 | 54 | 1007.9 |
| 20260508015029 | 48 | 0 | 0.0 | 0.0 | 0.00 | 0.05 | 0.03 | 53 | 1007.9 |
| 20260508014543 | 49 | 0 | 0.0 | 0.0 | 0.00 | 0.05 | 0.03 | 53 | 1007.7 |
| 20260508014029 | 49 | 0 | 0.0 | 1.0 | 0.00 | 0.05 | 0.03 | 52 | 1007.7 |
| 20260508013528 | 49 | 0 | 0.0 | 1.0 | 0.00 | 0.05 | 0.03 | 52 | 1007.6 |
| 20260508013038 | 49 | 0 | 0.0 | 1.0 | 0.00 | 0.05 | 0.03 | 52 | 1007.5 |
| 20260508012528 | 49 | 0 | 0.0 | 1.0 | 0.00 | 0.05 | 0.03 | 52 | 1007.5 |
| 20260508012028 | 49 | 340 | 0.0 | 1.0 | 0.00 | 0.05 | 0.03 | 51 | 1007.3 |
| 20260508011543 | 50 | 0 | 0.0 | 2.0 | 0.00 | 0.05 | 0.03 | 51 | 1007.2 |
| 20260508011028 | 50 | 0 | 0.0 | 2.0 | 0.00 | 0.05 | 0.03 | 50 | 1007.1 |
| 20260508010528 | 50 | 0 | 0.0 | 1.0 | 0.00 | 0.05 | 0.03 | 49 | 1007.2 |
| 20260508010044 | 50 | 0 | 0.0 | 1.0 | 0.00 | 0.05 | 0.03 | 49 | 1007.0 |
| 20260508005527 | 50 | 0 | 0.0 | 1.0 | 0.00 | 0.05 | 0.03 | 49 | 1007.0 |
| 20260508005025 | 50 | 0 | 0.0 | 0.0 | 0.00 | 0.05 | 0.03 | 48 | 1006.8 |
| 20260508004538 | 51 | 0 | 0.0 | 1.0 | 0.00 | 0.05 | 0.03 | 48 | 1006.7 |
| 20260508004027 | 51 | 0 | 0.0 | 1.0 | 0.00 | 0.05 | 0.03 | 48 | 1006.5 |
| 20260508003528 | 51 | 293 | 0.0 | 2.0 | 0.00 | 0.05 | 0.03 | 47 | 1006.6 |
| 20260508003037 | 51 | 14 | 0.0 | 2.0 | 0.00 | 0.05 | 0.03 | 47 | 1006.5 |
| 20260508002527 | 52 | 0 | 0.0 | 1.0 | 0.00 | 0.05 | 0.03 | 46 | 1006.5 |
| 20260508002027 | 52 | 0 | 0.0 | 1.0 | 0.00 | 0.05 | 0.03 | 45 | 1006.4 |
| 20260508001537 | 52 | 0 | 0.0 | 1.0 | 0.00 | 0.05 | 0.03 | 45 | 1006.3 |
| 20260508001027 | 53 | 0 | 0.0 | 1.0 | 0.00 | 0.05 | 0.03 | 44 | 1006.2 |
| 20260508000527 | 53 | 0 | 0.0 | 2.0 | 0.00 | 0.05 | 0.03 | 43 | 1006.2 |
| 20260508000041 | 54 | 0 | 0.0 | 2.0 | 0.00 | 0.05 | 0.03 | 43 | 1006.2 |
| 20260507235526 | 54 | 144 | 0.0 | 2.0 | 0.00 | 0.08 | 0.03 | 42 | 1006.1 |
| 20260507235025 | 55 | 0 | 0.0 | 2.0 | 0.00 | 0.08 | 0.03 | 40 | 1006.0 |
| 20260507234543 | 55 | 33 | 0.0 | 2.0 | 0.00 | 0.08 | 0.03 | 40 | 1005.9 |
| 20260507234028 | 55 | 0 | 0.0 | 2.0 | 0.00 | 0.08 | 0.03 | 39 | 1005.9 |
| 20260507233527 | 55 | 53 | 1.0 | 7.0 | 0.00 | 0.08 | 0.03 | 38 | 1005.8 |
| 20260507233040 | 56 | 301 | 1.0 | 7.0 | 0.00 | 0.08 | 0.03 | 39 | 1005.9 |
| 20260507232528 | 56 | 164 | 1.0 | 7.0 | 0.00 | 0.08 | 0.03 | 38 | 1005.9 |
| 20260507232027 | 56 | 0 | 0.0 | 5.0 | 0.00 | 0.08 | 0.03 | 39 | 1005.7 |
| 20260507231538 | 57 | 0 | 0.0 | 5.0 | 0.00 | 0.08 | 0.03 | 39 | 1005.8 |
| 20260507231027 | 57 | 122 | 0.0 | 3.0 | 0.00 | 0.08 | 0.03 | 37 | 1005.8 |
| 20260507230526 | 57 | 125 | 1.0 | 6.0 | 0.00 | 0.08 | 0.03 | 37 | 1005.7 |
| 20260507230036 | 57 | 281 | 2.0 | 6.0 | 0.00 | 0.08 | 0.03 | 36 | 1005.7 |
| 20260507225526 | 57 | 109 | 1.0 | 9.0 | 0.00 | 0.11 | 0.03 | 37 | 1005.7 |
| 20260507225026 | 57 | 0 | 1.0 | 9.0 | 0.00 | 0.11 | 0.03 | 38 | 1005.6 |
| 20260507224541 | 57 | 349 | 1.0 | 6.0 | 0.00 | 0.11 | 0.03 | 36 | 1005.6 |
| 20260507224027 | 57 | 360 | 1.0 | 7.0 | 0.00 | 0.11 | 0.03 | 36 | 1005.6 |
| 20260507223527 | 58 | 32 | 2.0 | 7.0 | 0.00 | 0.11 | 0.03 | 36 | 1005.5 |
| 20260507223043 | 58 | 141 | 1.0 | 6.0 | 0.00 | 0.11 | 0.03 | 35 | 1005.5 |
| 20260507222528 | 58 | 269 | 1.0 | 6.0 | 0.00 | 0.11 | 0.03 | 36 | 1005.5 |
| 20260507222025 | 58 | 0 | 0.0 | 2.0 | 0.00 | 0.11 | 0.03 | 37 | 1005.5 |
| 20260507221539 | 58 | 0 | 0.0 | 6.0 | 0.00 | 0.11 | 0.03 | 35 | 1005.4 |
| 20260507221026 | 59 | 151 | 1.0 | 6.0 | 0.00 | 0.11 | 0.03 | 35 | 1005.4 |
| 20260507220527 | 59 | 35 | 1.0 | 5.0 | 0.00 | 0.11 | 0.03 | 35 | 1005.4 |
| 20260507220037 | 59 | 14 | 1.0 | 4.0 | 0.00 | 0.11 | 0.03 | 37 | 1005.4 |
| 20260507215528 | 59 | 50 | 0.0 | 4.0 | 0.00 | 0.12 | 0.03 | 36 | 1005.3 |
| 20260507215028 | 59 | 15 | 0.0 | 4.0 | 0.00 | 0.12 | 0.03 | 36 | 1005.3 |
| 20260507214541 | 59 | 329 | 1.0 | 4.0 | 0.00 | 0.12 | 0.03 | 35 | 1005.3 |
| 20260507214028 | 59 | 284 | 1.0 | 6.0 | 0.00 | 0.12 | 0.03 | 34 | 1005.2 |
| 20260507213527 | 60 | 350 | 1.0 | 8.0 | 0.00 | 0.12 | 0.03 | 33 | 1005.2 |
| 20260507213041 | 60 | 353 | 2.0 | 8.0 | 0.00 | 0.12 | 0.03 | 34 | 1005.2 |
| 20260507212526 | 60 | 58 | 1.0 | 8.0 | 0.00 | 0.12 | 0.03 | 36 | 1005.2 |
| 20260507212025 | 60 | 13 | 2.0 | 8.0 | 0.00 | 0.12 | 0.03 | 34 | 1005.0 |
| 20260507211540 | 60 | 264 | 2.0 | 8.0 | 0.00 | 0.12 | 0.03 | 35 | 1005.0 |
| 20260507211027 | 60 | 87 | 0.0 | 6.0 | 0.00 | 0.12 | 0.03 | 36 | 1005.0 |
| 20260507210527 | 60 | 20 | 1.0 | 5.0 | 0.00 | 0.12 | 0.03 | 33 | 1005.1 |
| 20260507210039 | 61 | 2 | 2.0 | 5.0 | 0.00 | 0.12 | 0.03 | 34 | 1005.1 |
| 20260507205528 | 61 | 80 | 2.0 | 6.0 | 0.00 | 0.16 | 0.03 | 33 | 1005.1 |
| 20260507205028 | 61 | 244 | 1.0 | 6.0 | 0.00 | 0.16 | 0.03 | 36 | 1005.0 |
| 20260507204538 | 62 | 84 | 2.0 | 6.0 | 0.00 | 0.16 | 0.03 | 34 | 1005.1 |
| 20260507204027 | 62 | 269 | 2.0 | 7.0 | 0.00 | 0.16 | 0.03 | 34 | 1005.0 |
| 20260507203528 | 62 | 236 | 1.0 | 7.0 | 0.00 | 0.16 | 0.03 | 34 | 1005.0 |
| 20260507203036 | 62 | 355 | 2.0 | 9.0 | 0.00 | 0.16 | 0.03 | 34 | 1004.9 |
| 20260507202528 | 63 | 11 | 1.0 | 9.0 | 0.00 | 0.16 | 0.03 | 32 | 1004.9 |
| 20260507202028 | 63 | 41 | 3.0 | 8.0 | 0.00 | 0.16 | 0.03 | 33 | 1004.9 |
| 20260507201546 | 63 | 195 | 2.0 | 5.0 | 0.00 | 0.16 | 0.03 | 34 | 1004.8 |
| 20260507201028 | 63 | 148 | 2.0 | 7.0 | 0.00 | 0.16 | 0.03 | 35 | 1004.9 |
| 20260507200529 | 63 | 281 | 1.0 | 7.0 | 0.00 | 0.16 | 0.03 | 35 | 1004.9 |
| 20260507200048 | 62 | 203 | 1.0 | 6.0 | 0.00 | 0.16 | 0.03 | 36 | 1004.9 |
| 20260507195528 | 63 | 7 | 1.0 | 6.0 | 0.00 | 0.20 | 0.03 | 35 | 1005.0 |
| 20260507195031 | 63 | 275 | 1.0 | 6.0 | 0.00 | 0.20 | 0.03 | 36 | 1005.0 |
| 20260507194547 | 63 | 159 | 1.0 | 6.0 | 0.00 | 0.20 | 0.03 | 36 | 1005.1 |
| 20260507194027 | 63 | 122 | 2.0 | 8.0 | 0.00 | 0.20 | 0.03 | 36 | 1005.2 |
| 20260507193527 | 63 | 137 | 1.0 | 8.0 | 0.00 | 0.20 | 0.03 | 34 | 1005.2 |
| 20260507193040 | 64 | 348 | 1.0 | 4.0 | 0.00 | 0.20 | 0.03 | 34 | 1005.2 |
| 20260507192528 | 63 | 77 | 1.0 | 5.0 | 0.00 | 0.20 | 0.03 | 35 | 1005.2 |
| 20260507192025 | 63 | 258 | 2.0 | 8.0 | 0.00 | 0.20 | 0.03 | 34 | 1005.3 |
| 20260507191543 | 63 | 234 | 2.0 | 8.0 | 0.00 | 0.20 | 0.03 | 36 | 1005.4 |
| 20260507191028 | 63 | 72 | 2.0 | 7.0 | 0.00 | 0.20 | 0.03 | 35 | 1005.5 |
| 20260507190527 | 63 | 154 | 2.0 | 7.0 | 0.00 | 0.20 | 0.03 | 32 | 1005.4 |
| 20260507190042 | 63 | 106 | 1.0 | 8.0 | 0.00 | 0.20 | 0.03 | 32 | 1005.5 |
| 20260507185527 | 63 | 227 | 3.0 | 8.0 | 0.00 | 0.22 | 0.03 | 32 | 1005.6 |
| 20260507185025 | 63 | 62 | 1.0 | 4.0 | 0.00 | 0.22 | 0.03 | 33 | 1005.6 |
| 20260507184554 | 63 | 37 | 1.0 | 6.0 | 0.00 | 0.22 | 0.03 | 31 | 1005.6 |
| 20260507184024 | 63 | 295 | 1.0 | 6.0 | 0.00 | 0.22 | 0.03 | 35 | 1005.6 |
| 20260507183525 | 64 | 153 | 2.0 | 6.0 | 0.00 | 0.22 | 0.03 | 31 | 1005.6 |
| 20260507183045 | 64 | 8 | 1.0 | 11.0 | 0.00 | 0.22 | 0.03 | 39 | 1005.7 |
| 20260507182525 | 63 | 337 | 1.0 | 11.0 | 0.00 | 0.22 | 0.03 | 37 | 1005.6 |
| 20260507182025 | 63 | 211 | 3.0 | 11.0 | 0.00 | 0.22 | 0.03 | 35 | 1005.6 |
| 20260507181539 | 63 | 11 | 1.0 | 9.0 | 0.00 | 0.22 | 0.03 | 33 | 1005.6 |
| 20260507181031 | 63 | 332 | 3.0 | 9.0 | 0.00 | 0.22 | 0.03 | 33 | 1005.8 |
| 20260507180524 | 63 | 79 | 2.0 | 7.0 | 0.00 | 0.22 | 0.03 | 40 | 1005.7 |
| 20260507180043 | 63 | 354 | 2.0 | 7.0 | 0.00 | 0.22 | 0.03 | 34 | 1005.7 |
| 20260507175525 | 64 | 66 | 3.0 | 6.0 | 0.00 | 0.22 | 0.03 | 32 | 1005.8 |
| 20260507175024 | 64 | 27 | 1.0 | 6.0 | 0.00 | 0.22 | 0.03 | 37 | 1005.7 |
| 20260507174536 | 64 | 7 | 1.0 | 5.0 | 0.00 | 0.22 | 0.03 | 35 | 1005.7 |
| 20260507174026 | 64 | 312 | 1.0 | 7.0 | 0.00 | 0.22 | 0.03 | 34 | 1005.8 |
| 20260507173527 | 64 | 268 | 0.0 | 7.0 | 0.00 | 0.22 | 0.03 | 37 | 1005.7 |
| 20260507173043 | 63 | 339 | 3.0 | 10.0 | 0.00 | 0.22 | 0.03 | 39 | 1005.5 |
| 20260507172528 | 63 | 273 | 1.0 | 10.0 | 0.00 | 0.22 | 0.03 | 33 | 1005.6 |
| 20260507172025 | 63 | 350 | 3.0 | 12.0 | 0.00 | 0.22 | 0.03 | 36 | 1005.7 |
| 20260507171547 | 62 | 328 | 1.0 | 13.0 | 0.00 | 0.22 | 0.03 | 38 | 1005.9 |
| 20260507171026 | 63 | 14 | 4.0 | 13.0 | 0.00 | 0.22 | 0.03 | 34 | 1005.9 |
| 20260507170526 | 63 | 54 | 2.0 | 8.0 | 0.00 | 0.22 | 0.03 | 38 | 1006.0 |
| 20260507170045 | 62 | 101 | 2.0 | 8.0 | 0.00 | 0.22 | 0.03 | 44 | 1006.2 |
| 20260507165527 | 63 | 238 | 2.0 | 8.0 | 0.00 | 0.22 | 0.03 | 40 | 1006.2 |
| 20260507165027 | 62 | 262 | 2.0 | 7.0 | 0.00 | 0.22 | 0.03 | 40 | 1006.2 |
| 20260507164559 | 63 | 203 | 2.0 | 9.0 | 0.00 | 0.22 | 0.03 | 41 | 1006.4 |
| 20260507164024 | 63 | 170 | 2.0 | 9.0 | 0.00 | 0.22 | 0.03 | 40 | 1006.4 |
| 20260507163526 | 62 | 274 | 2.0 | 12.0 | 0.00 | 0.22 | 0.03 | 43 | 1006.4 |
| 20260507163042 | 62 | 130 | 2.0 | 12.0 | 0.00 | 0.22 | 0.03 | 47 | 1006.7 |
| 20260507162525 | 62 | 3 | 4.0 | 12.0 | 0.00 | 0.22 | 0.03 | 44 | 1006.7 |
| 20260507162025 | 62 | 4 | 2.0 | 14.0 | 0.00 | 0.22 | 0.03 | 46 | 1006.7 |
| 20260507161547 | 62 | 63 | 3.0 | 14.0 | 0.00 | 0.22 | 0.03 | 44 | 1006.7 |
| 20260507161025 | 62 | 333 | 3.0 | 14.0 | 0.00 | 0.22 | 0.03 | 48 | 1006.7 |
| 20260507160528 | 61 | 88 | 3.0 | 11.0 | 0.00 | 0.22 | 0.03 | 49 | 1006.6 |
| 20260507160040 | 62 | 58 | 4.0 | 11.0 | 0.00 | 0.22 | 0.03 | 50 | 1006.8 |
| 20260507155528 | 62 | 40 | 3.0 | 7.0 | 0.00 | 0.22 | 0.03 | 52 | 1006.7 |
| 20260507155026 | 63 | 44 | 1.0 | 5.0 | 0.00 | 0.22 | 0.03 | 49 | 1006.7 |
| 20260507154537 | 61 | 326 | 2.0 | 8.0 | 0.00 | 0.22 | 0.03 | 50 | 1006.7 |
| 20260507154028 | 60 | 103 | 1.0 | 8.0 | 0.00 | 0.22 | 0.03 | 60 | 1006.8 |
| 20260507153525 | 60 | 291 | 2.0 | 8.0 | 0.00 | 0.22 | 0.03 | 53 | 1006.8 |
| 20260507153039 | 61 | 0 | 3.0 | 7.0 | 0.00 | 0.22 | 0.03 | 55 | 1006.8 |
| 20260507152524 | 62 | 274 | 1.0 | 9.0 | 0.00 | 0.22 | 0.03 | 53 | 1006.8 |
| 20260507152028 | 61 | 236 | 2.0 | 9.0 | 0.00 | 0.22 | 0.03 | 55 | 1006.9 |
| 20260507151535 | 59 | 1 | 2.0 | 8.0 | 0.00 | 0.22 | 0.03 | 55 | 1006.9 |
| 20260507151025 | 59 | 125 | 2.0 | 8.0 | 0.00 | 0.22 | 0.03 | 56 | 1007.1 |
| 20260507150526 | 60 | 347 | 3.0 | 8.0 | 0.00 | 0.22 | 0.03 | 56 | 1007.1 |
| 20260507150043 | 59 | 165 | 1.0 | 6.0 | 0.00 | 0.22 | 0.03 | 59 | 1007.2 |
| 20260507145524 | 58 | 224 | 1.0 | 7.0 | 0.00 | 0.22 | 0.03 | 59 | 1007.3 |
| 20260507145031 | 59 | 19 | 2.0 | 7.0 | 0.00 | 0.22 | 0.03 | 62 | 1007.3 |
| 20260507144540 | 58 | 1 | 0.0 | 7.0 | 0.00 | 0.22 | 0.03 | 61 | 1007.3 |
| 20260507144025 | 58 | 58 | 1.0 | 7.0 | 0.00 | 0.22 | 0.03 | 59 | 1007.4 |
| 20260507143526 | 59 | 46 | 2.0 | 8.0 | 0.00 | 0.22 | 0.03 | 59 | 1007.4 |
| 20260507143100 | 59 | 61 | 3.0 | 8.0 | 0.00 | 0.22 | 0.03 | 59 | 1007.4 |
| 20260507142527 | 59 | 339 | 0.0 | 5.0 | 0.00 | 0.22 | 0.03 | 64 | 1007.3 |
| 20260507142025 | 58 | 304 | 2.0 | 5.0 | 0.00 | 0.22 | 0.03 | 58 | 1007.3 |
| 20260507141604 | 58 | 262 | 0.0 | 3.0 | 0.00 | 0.22 | 0.03 | 61 | 1007.4 |
| 20260507141025 | 58 | 232 | 0.0 | 4.0 | 0.00 | 0.22 | 0.03 | 62 | 1007.4 |
| 20260507140525 | 58 | 345 | 0.0 | 4.0 | 0.00 | 0.22 | 0.03 | 63 | 1007.4 |
| 20260507140042 | 57 | 47 | 1.0 | 4.0 | 0.00 | 0.22 | 0.03 | 62 | 1007.4 |
| 20260507135528 | 58 | 293 | 1.0 | 4.0 | 0.00 | 0.22 | 0.03 | 65 | 1007.5 |
| 20260507135028 | 57 | 210 | 2.0 | 4.0 | 0.00 | 0.22 | 0.03 | 63 | 1007.3 |
| 20260507134540 | 58 | 120 | 1.0 | 3.0 | 0.00 | 0.22 | 0.03 | 62 | 1007.3 |
| 20260507134029 | 58 | 204 | 1.0 | 4.0 | 0.00 | 0.22 | 0.03 | 62 | 1007.3 |
| 20260507133530 | 58 | 87 | 1.0 | 5.0 | 0.00 | 0.22 | 0.03 | 70 | 1007.2 |
| 20260507133037 | 57 | 134 | 1.0 | 5.0 | 0.00 | 0.22 | 0.03 | 65 | 1007.2 |
| 20260507132524 | 57 | 79 | 0.0 | 5.0 | 0.00 | 0.22 | 0.03 | 68 | 1007.4 |
| 20260507132024 | 57 | 333 | 1.0 | 7.0 | 0.00 | 0.22 | 0.03 | 66 | 1007.5 |
| 20260507131546 | 56 | 243 | 0.0 | 7.0 | 0.00 | 0.22 | 0.03 | 72 | 1007.6 |
| 20260507131028 | 55 | 69 | 2.0 | 7.0 | 0.00 | 0.22 | 0.03 | 70 | 1007.7 |